Weather History for KMOD - November, 2011

Change the Weather History Date:

Tuesday, November 22, 2011

  Actual Average Record
Temperature  
Mean Temperature 49 °F -  
Max Temperature 59 °F 63 °F 73 °F (1933)
Min Temperature 39 °F 43 °F 29 °F (1931)
Degree Days  
Heating Degree Days 16 12  
Month to date heating degree days 258 190  
Since 1 July heating degree days 304 253  
Cooling Degree Days 0 0  
Month to date cooling degree days 0 0  
Year to date cooling degree days 1489 1696  
Moisture  
Dew Point 42 °F    
Average Humidity 81    
Maximum Humidity 100    
Minimum Humidity 62    
Precipitation  
Precipitation 0.00 in 0.05 in 0.70 in (1965)
Month to date precipitation 0.70 0.95  
Year to date precipitation 10.67 10.66  
Since 1 July precipitation 1.70 1.91  
Snow  
Snow 0.00 in - 0.00 in (2002)
Month to date snowfall 0.0  
Since 1 July snowfall 0.0  
Since 1 September snowfall 0.0  
Snow Depth -    
Sea Level Pressure  
Sea Level Pressure 30.24 in    
Wind  
Wind Speed 4 mph (SE)    
Max Wind Speed 9 mph    
Max Gust Speed 13 mph    
Visibility 3 miles    
Events Fog    
T = Trace of Precipitation, MM = Missing Value Source: NWS Daily Summary

Daily Weather History Graph

Daily Weather History Graph

Search for Another Location

Airport or City:

Trip Planner

Search our weather history database for the weather conditions in past years. The results will help you decide how hot, cold, wet, or windy it might be!

Date:

Astronomy

Nov. 22, 2011 Rise Set
Actual Time 6:50 AM PST 4:48 PM PST
Civil Twilight 6:22 AM PST 5:17 PM PST
Nautical Twilight 5:50 AM PST 5:48 PM PST
Astronomical Twilight 5:19 AM PST 6:20 PM PST
Moon 3:50 AM PST (11/22) 2:49 PM PST (11/22)
Length of Visible Light 10h 54m
Length of Day
9h 57m
Waning Crescent, 9% of the Moon is Illuminated
Nov 22
Waning Crescent
Nov 24
New
Dec 2
First Quarter
Dec 10
Full
Dec 17
Last Quarter

Hourly Weather History & Observations

Time (PST) Temp. Windchill Dew Point Humidity Pressure Visibility Wind Dir Wind Speed Gust Speed Precip Events Conditions
12:53 AM 42.1 °F 40.2 °F 41.0 °F 96% 30.28 in 2.0 mi SE 3.5 mph - N/A   Clear
1:00 AM 42.8 °F - 41.0 °F 93% 30.27 in 1.2 mi Calm Calm - N/A   Clear
1:24 AM 39.2 °F 37.0 °F 39.2 °F 100% 30.27 in 0.5 mi ESE 3.5 mph - N/A Fog Fog
1:34 AM 39.2 °F 35.9 °F 39.2 °F 100% 30.27 in 0.2 mi East 4.6 mph - N/A Fog Fog
1:37 AM 39.2 °F 35.9 °F 39.2 °F 100% 30.27 in 0.5 mi East 4.6 mph - N/A Fog Fog
1:46 AM 39.2 °F 35.0 °F 39.2 °F 100% 30.27 in 0.5 mi SE 5.8 mph - N/A Fog Fog
1:53 AM 42.1 °F 39.2 °F 41.0 °F 96% 30.28 in 0.5 mi SE 4.6 mph - N/A Fog Fog
2:02 AM 41.0 °F 39.0 °F 41.0 °F 100% 30.28 in 1.2 mi ESE 3.5 mph - N/A   Overcast
2:33 AM 42.8 °F - 42.8 °F 100% 30.29 in 0.2 mi Calm Calm - N/A Fog Fog
2:53 AM 43.0 °F 39.5 °F 42.1 °F 97% 30.30 in 0.2 mi ESE 5.8 mph - N/A Fog Fog
3:09 AM 42.8 °F 40.1 °F 41.0 °F 93% 30.28 in 0.5 mi ESE 4.6 mph - N/A Fog Fog
3:18 AM 42.8 °F 40.1 °F 41.0 °F 93% 30.28 in 0.2 mi ESE 4.6 mph - N/A Fog Fog
3:53 AM 42.1 °F 40.2 °F 42.1 °F 100% 30.28 in 0.2 mi ESE 3.5 mph - N/A Fog Fog
4:53 AM 42.1 °F 40.2 °F 42.1 °F 100% 30.28 in 0.2 mi ESE 3.5 mph - N/A Fog Fog
5:02 AM 42.8 °F - 42.8 °F 100% 30.28 in 0.2 mi Calm Calm - N/A Fog Fog
5:53 AM 43.0 °F - 43.0 °F 100% 30.29 in 0.2 mi Calm Calm - N/A Fog Fog
6:53 AM 42.1 °F - 42.1 °F 100% 30.29 in 0.2 mi Calm Calm - N/A Fog Fog
7:53 AM 42.1 °F 40.2 °F 41.0 °F 96% 30.30 in 0.2 mi ESE 3.5 mph - N/A Fog Fog
8:53 AM 43.0 °F 39.5 °F 43.0 °F 100% 30.31 in 0.2 mi SSE 5.8 mph - N/A Fog Fog
9:17 AM 42.8 °F 40.1 °F 42.8 °F 100% 30.31 in 0.5 mi SE 4.6 mph - N/A Fog Fog
9:33 AM 44.6 °F 42.2 °F 44.6 °F 100% 30.30 in 1.8 mi ESE 4.6 mph - N/A   Overcast
9:37 AM 44.6 °F 41.4 °F 44.6 °F 100% 30.30 in 2.5 mi ESE 5.8 mph - N/A   Overcast
10:36 AM 46.4 °F 45.2 °F 44.6 °F 93% 30.29 in 2.5 mi South 3.5 mph - N/A   Overcast
10:53 AM 46.0 °F 43.9 °F 45.0 °F 96% 30.29 in 2.5 mi South 4.6 mph - N/A   Overcast
11:53 AM 50.0 °F - 46.0 °F 86% 30.25 in 6.0 mi South 5.8 mph - N/A   Scattered Clouds
12:53 PM 55.0 °F - 46.9 °F 74% 30.22 in 10.0 mi SSW 5.8 mph - N/A   Clear
2:53 PM 59.0 °F - 46.0 °F 62% 30.17 in 10.0 mi Variable 4.6 mph - N/A   Clear
3:53 PM 59.0 °F - 45.0 °F 60% 30.16 in 10.0 mi South 4.6 mph - N/A   Clear
5:53 PM 52.0 °F - 45.0 °F 77% 30.14 in 10.0 mi Calm Calm - N/A   Clear
6:53 PM 50.0 °F - 45.0 °F 83% 30.14 in 9.0 mi Calm Calm - N/A   Clear
8:53 PM 45.0 °F 43.5 °F 43.0 °F 93% 30.14 in 4.0 mi ESE 3.5 mph - N/A   Clear
9:53 PM 44.1 °F 41.5 °F 42.1 °F 93% 30.14 in 3.0 mi ESE 4.6 mph - N/A   Clear
10:25 PM 42.8 °F 39.3 °F 41.0 °F 93% 30.13 in 2.5 mi ESE 5.8 mph - N/A   Clear
10:53 PM 42.1 °F 39.2 °F 41.0 °F 96% 30.13 in 2.5 mi ESE 4.6 mph - N/A   Clear
11:00 PM 42.8 °F 40.1 °F 41.0 °F 93% 30.13 in 3.0 mi ESE 4.6 mph - N/A   Clear
11:28 PM 42.8 °F 39.3 °F 41.0 °F 93% 30.11 in 2.5 mi ESE 5.8 mph - N/A   Clear
11:43 PM 42.8 °F 39.3 °F 41.0 °F 93% 30.11 in 3.0 mi ESE 5.8 mph - N/A   Clear
11:53 PM 42.1 °F 38.4 °F 41.0 °F 96% 30.11 in 3.0 mi ESE 5.8 mph - N/A   Clear